Regional Weather Roundup
Issued by NWS

Home | Current Version | Previous Version | Text Only | Print | Product List | Glossary On
Versions: 1 2 3 4 5 6 7 8 9 10 11 12 13 14 15 16 17 18 19 20 21 22 23 24 25 26 27 28 29 30 31 32 33 34 35 36 37 38 39 40 41 42 43 44 45 46 47 48 49 50
000
ASUS43 KLSX 080257
RWRMO

WEATHER SUMMARY FOR MISSOURI
NATIONAL WEATHER SERVICE SPRINGFIELD MO
900 PM CST WED DEC 07 2016

NOTE: "FAIR" INDICATES FEW OR NO CLOUDS BELOW 12,000 FEET WITH NO
       SIGNIFICANT WEATHER AND/OR OBSTRUCTIONS TO VISIBILITY.
       CURRENT SKY AND/OR WEATHER CONDITIONS ARE NOT AVAILABLE FOR
       CHILLICOTHE AND FARMINGTON.

MOZ001>031-035>038-043-044-053-054-080400-
...NORTHERN AND WESTERN MISSOURI...

CITY           SKY/WX    TMP DP  RH WIND       PRES   REMARKS
KANSAS CTY INT CLEAR     19   9  65 NW6       30.42R WCI  11
LEE`S SUMMIT   CLEAR     23  11  60 NW10      30.42R WCI  12
ST JOSEPH      CLEAR     18  10  71 W6        30.44S WCI  10
CHILLICOTHE      N/A     22  10  60 W7        30.41S WCI  13

$$
MOZ066>068-077>081-088>096-101>105-080400-
...SOUTHWEST MISSOURI...

CITY           SKY/WX    TMP DP  RH WIND       PRES   REMARKS
SPRINGFIELD    FLURRIES  28  25  88 N10       30.36R WCI  19
JOPLIN         CLOUDY    28  25  88 N13       30.43R WCI  17
BRANSON        CLOUDY    32  23  69 N15G23    30.34R WCI  22

$$
MOZ032>034-039>042-045>050-055>058-069>072-080400-
...CENTRAL MISSOURI...

CITY           SKY/WX    TMP DP  RH WIND       PRES   REMARKS
COLUMBIA       NOT AVBL
JEFFERSON CITY MOCLDY    28  20  71 W10       30.38R WCI  19
ROLLA          FLURRIES  27  23  85 NW12      30.32S WCI  17
SEDALIA        CLEAR     25  16  68 NW12      30.41R WCI  14
WARRENSBURG    PTCLDY    25  14  63 NW9       30.42R WCI  15

$$
MOZ051-052-059>065-080400-
...EAST CENTRAL MISSOURI...

CITY           SKY/WX    TMP DP  RH WIND       PRES   REMARKS
ST LOUIS INTL  MOCLDY    33  16  49 NW13G23   30.31R WCI  24

$$
MOZ072>076-082>087-097>100-106>115-080400-
...SOUTH CENTRAL AND SOUTHEAST MISSOURI...

CITY           SKY/WX    TMP DP  RH WIND       PRES   REMARKS
CAPE GIRARDEAU CLOUDY    37  22  54 NW9       30.29R
POPLAR BLUFF   CLOUDY    38  22  52 N12       30.30R
WEST PLAINS    CLOUDY    33  20  58 N12       30.32R WCI  24

$$


USA.gov is the U.S. government's official web portal to all federal, state and local government web resources and services.